Address 0x459607755af41f12a8a213792fec822d901c5958 1

Txn Hash Method
Block
From
To
Value [Txn Fee]
0x767dfbbd08f9818137af345694ce94e511a6f1b3561561ce43233768dbcc2e46Swap Exact Token...140392902024-05-21 13:13:281 day 9 hrs ago0x459607755af41f12a8a213792fec822d901c5958OUT VVS Finance: Router0 CRO0.628338 6,000
0x2b10fa35e6dee701051f0290a375cdfa4bda072f382b1011aa83d9f8e7515f3dSwap Exact Token...140392892024-05-21 13:13:231 day 9 hrs ago0x459607755af41f12a8a213792fec822d901c5958OUT VVS Finance: Router0 CRO0.628338 6,000
0xb663d3a3d777b3e958c09c240d8f4e14f884657a43c5caddc0f0a2ad1ed28e0eSwap Exact Token...140392882024-05-21 13:13:171 day 9 hrs ago0x459607755af41f12a8a213792fec822d901c5958OUT VVS Finance: Router0 CRO0.628338 6,000
0x038ca24f9c8a8595ca0af744d631939c04ca63fc6a593c18b6eef13d3175b710Swap Tokens For ...140222672024-05-20 10:13:042 days 12 hrs ago0x459607755af41f12a8a213792fec822d901c5958OUT VVS Finance: Router0 CRO0.62814 6,000
0x8ea121b2c6e10972fa7d4930ce47f299f1b4fe1f5619eb35f3fcff6e5d384719Swap Tokens For ...140127142024-05-19 19:07:513 days 3 hrs ago0x459607755af41f12a8a213792fec822d901c5958OUT VVS Finance: Router0 CRO0.62814 6,000
0xf5fab315f1222e1c65e3d4961ac875cc4bfdb095136563f9a5c3f78549b3fe6eSwap Tokens For ...140105912024-05-19 15:46:423 days 7 hrs ago0x459607755af41f12a8a213792fec822d901c5958OUT VVS Finance: Router0 CRO0.62814 6,000
0x1c50b3db8ec313ba26c69e862c5f54c2c685ef53ad97918ce13f9209f495bd9fSwap Exact Token...139726512024-05-17 3:39:575 days 19 hrs ago0x459607755af41f12a8a213792fec822d901c5958OUT VVS Finance: Router0 CRO0.628338 6,000
0xc3427032f7867a09ed4910d45a7e0927722654f0f43d0eae4fc18a4006232406Swap Exact Token...139504932024-05-15 16:33:027 days 6 hrs ago0x459607755af41f12a8a213792fec822d901c5958OUT VVS Finance: Router0 CRO0.628338 6,000
0xf5c81b6b5d5f3614243d33864784fda7d19e11f7ec7006f231cb11b6d4ebdce4Swap Exact Token...139504912024-05-15 16:32:517 days 6 hrs ago0x459607755af41f12a8a213792fec822d901c5958OUT VVS Finance: Router0 CRO0.628338 6,000
0xecb864c7832bbde771e19164e22c57edd41f9a26b6dbcc38a958aa7964256beeSwap Exact Token...139497462024-05-15 15:21:597 days 7 hrs ago0x459607755af41f12a8a213792fec822d901c5958OUT VVS Finance: Router0 CRO0.628338 6,000
0x1104d8d3613b9bc2873387b31c3ed1b7f4c90a346ee3f77c5fa2331326e941abSwap Exact Token...139496942024-05-15 15:17:017 days 7 hrs ago0x459607755af41f12a8a213792fec822d901c5958OUT VVS Finance: Router0 CRO0.628338 6,000
0x19f26fccbcc2fe942855a8bf25348ac92ea6f79da2fc6fa231d17405766a2158Swap Exact Token...139496562024-05-15 15:13:257 days 7 hrs ago0x459607755af41f12a8a213792fec822d901c5958OUT VVS Finance: Router0 CRO0.628266 6,000
0x9d66594ac25c46f523a8ae27085258a49c623ac59d1934f513943fd141c9a2aaSwap Exact Token...139487832024-05-15 13:50:197 days 9 hrs ago0x459607755af41f12a8a213792fec822d901c5958OUT VVS Finance: Router0 CRO0.628338 6,000
0x15540d1686da9270be9993e889ed2a849a339e304a653492e572d3e4f193bb3fSwap Tokens For ...139397282024-05-14 23:30:347 days 23 hrs ago0x459607755af41f12a8a213792fec822d901c5958OUT VVS Finance: Router0 CRO0.62814 6,000
0x92b2a7dded411802bdfc6fe1fad9d6ab08d203f7e262b6231debbd75c86c2036Transfer139397082024-05-14 23:28:417 days 23 hrs ago0x459607755af41f12a8a213792fec822d901c5958OUT Minted Network: MTD Token0 CRO0.17242034484 5,000.01
0x3b3d38afea7c9f4a9a344f751d0cd0d307f81bf219ac395e93b3d15d906dcd7cSwap Tokens For ...139397072024-05-14 23:28:357 days 23 hrs ago0x459607755af41f12a8a213792fec822d901c5958OUT VVS Finance: Router0 CRO0.62814 6,000
0xdb20ecb10957b85c2381f8f09f4d6b94aaaea38a195ba5451306d1f4fd749e35Transfer139396892024-05-14 23:26:527 days 23 hrs ago0x459607755af41f12a8a213792fec822d901c5958OUT Minted Network: MTD Token0 CRO0.25792051584 5,000.01
0x0b47487a1adf6f8214e2f8ccf23fc13929b620523d4a43521c1eac27643b7f7bSwap Tokens For ...139396882024-05-14 23:26:467 days 23 hrs ago0x459607755af41f12a8a213792fec822d901c5958OUT VVS Finance: Router0 CRO0.62814 6,000
0x8fd225d9dc84ad0e170b798362dcf15a5a95c27a2d09947dd2fca8f2ea9eb3beSwap Tokens For ...139391122024-05-14 22:31:588 days 29 mins ago0x459607755af41f12a8a213792fec822d901c5958OUT VVS Finance: Router0 CRO0.62814 6,000
0xe69eae2336e04f6d63c31858b296ae0cd24e30e66ccc791f332aabd5ba06d65eTransfer139390922024-05-14 22:30:038 days 31 mins ago0x459607755af41f12a8a213792fec822d901c5958OUT Minted Network: MTD Token0 CRO0.17242034484 5,000.01
0xd9f8eed3c948f601b2a9d44bef1070b67a252fbd21e4a80ad6ddd20a343a96ebSwap Tokens For ...139390912024-05-14 22:29:578 days 31 mins ago0x459607755af41f12a8a213792fec822d901c5958OUT VVS Finance: Router0 CRO0.62814 6,000
0x736c0dedbb92def14a5620dbc3a0a6af8237d040aa4b0f9cd9ed50419fc8af20Transfer139390702024-05-14 22:27:578 days 33 mins ago0x459607755af41f12a8a213792fec822d901c5958OUT Minted Network: MTD Token0 CRO0.25792051584 5,000.01
0x6a7a3d5eeefb978b239ff8797e95f1b9f30329e59fd804716fd057eb6a5a6bc1Swap Tokens For ...139390692024-05-14 22:27:528 days 33 mins ago0x459607755af41f12a8a213792fec822d901c5958OUT VVS Finance: Router0 CRO0.62814 6,000
0x83094fb0cede1b606758492cf268de7cd7f3bd722b313ee7f2f606c036381cb4Swap Tokens For ...139390682024-05-14 22:27:468 days 34 mins ago0x459607755af41f12a8a213792fec822d901c5958OUT VVS Finance: Router0 CRO0.62814 6,000
0x7b56493407f34564f76f578d9cd806b9612ac37497266b378c4d49ee0a4fffc4Transfer139384462024-05-14 21:28:378 days 1 hr ago0x459607755af41f12a8a213792fec822d901c5958OUT Minted Network: MTD Token0 CRO0.25792051584 5,000.01
[ Download CSV Export 
Parent Txn Hash Block From To Value
Index Block
Loading

Contract Name:
0

Compiler Version
0

Optimization Enabled:
0

Other Settings:
-NA-
Block Transaction Gas Used Reward
Age Block Fee Address BC Fee Address Voting Power Jailed Incoming
Block Uncle Number Difficulty Gas Used Reward
Loading
Loading
Loading
Make sure to use the "Vote Down" button for any spammy posts, and the "Vote Up" for interesting conversations.